,,PA_Meas_PMT16A,,PR_Meas_QMR101_102,,RH_Meas_QMH101,,SR_Meas_QMS101,,TA_Meas_QMH101,,GenWind,,GenWind,
time,status,PA,status,PR,status,RH,status,SR,status,TA,status,DirAvg,status,SpdAvg,
2014-08-17, 07:01:04,INVALID - VALUE NOT AVAILABLE,0,INVALID - VALUE NOT AVAILABLE,0,INVALID - VALUE NOT AVAILABLE,0,INVALID - VALUE NOT AVAILABLE,0,INVALID - VALUE NOT AVAILABLE,0,INVALID,360,INVALID,0,
2014-08-17, 07:09:04,VALID,918.26,VALID,0,VALID,97.8084,VALID,95.7301,VALID,17.6572,VALID,124,VALID,1.60703,
2014-08-17, 07:10:04,VALID,918.252,VALID,0,VALID,97.8465,VALID,100.35,VALID,17.6364,VALID,129,VALID,1.05664,
2014-08-17, 07:11:04,VALID,918.257,VALID,0,VALID,97.8313,VALID,105.292,VALID,17.6962,VALID,120,VALID,1.16367,
2014-08-17, 07:12:04,VALID,918.256,VALID,0,VALID,97.8313,VALID,110.02,VALID,17.7157,VALID,138,VALID,1.54727,
2014-08-17, 07:13:04,VALID,918.314,VALID,0,VALID,97.8237,VALID,113.136,VALID,17.7547,VALID,130,VALID,1.46797,
2014-08-17, 07:14:04,VALID,918.321,VALID,0,VALID,97.816,VALID,115.177,VALID,17.7533,VALID,124,VALID,1.40547,
2014-08-17, 07:15:04,VALID,918.341,VALID,0,VALID,97.8237,VALID,117.003,VALID,17.7923,VALID,141,VALID,1.19258,
2014-08-17, 07:16:04,VALID,918.374,VALID,0,VALID,97.816,VALID,117.433,VALID,17.8508,VALID,142,VALID,1.14414,
2014-08-17, 07:17:04,VALID,918.395,VALID,0,VALID,97.7856,VALID,120.871,VALID,17.9106,VALID,142,VALID,1.08633,
2014-08-17, 07:18:04,VALID,918.402,VALID,0,VALID,97.7932,VALID,127.64,VALID,17.9691,VALID,142,VALID,0.705859,
2014-08-17, 07:19:04,VALID,918.445,VALID,0,VALID,97.7703,VALID,133.872,VALID,18.0067,VALID,151,VALID,0.805469,
2014-08-17, 07:20:04,VALID,918.451,VALID,0,VALID,97.7627,VALID,138.384,VALID,18.0665,VALID,140,VALID,0.759375,
2014-08-17, 07:21:04,VALID,918.489,VALID,0,VALID,97.7703,VALID,143.219,VALID,18.1445,VALID,153,VALID,0.243359,
2014-08-17, 07:22:04,VALID,918.525,VALID,0,VALID,97.7474,VALID,148.376,VALID,18.203,VALID,139,VALID,0.669922,
2014-08-17, 07:23:04,VALID,918.546,VALID,0,VALID,97.7474,VALID,154.823,VALID,18.242,VALID,144,VALID,0.422266,
2014-08-17, 07:24:04,VALID,918.548,VALID,0,VALID,97.7474,VALID,160.625,VALID,18.2809,VALID,159,VALID,1.03867,
2014-08-17, 07:25:04,VALID,918.54,VALID,0,VALID,97.7398,VALID,164.707,VALID,18.2601,VALID,139,VALID,1.29258,
2014-08-17, 07:26:04,VALID,918.58,VALID,0,VALID,97.7474,VALID,168.145,VALID,18.3004,VALID,142,VALID,1.16055,
2014-08-17, 07:27:04,VALID,918.587,VALID,0,VALID,97.7398,VALID,172.013,VALID,18.3575,VALID,126,VALID,0.755078,
2014-08-17, 07:28:04,VALID,918.597,VALID,0,VALID,97.7169,VALID,176.311,VALID,18.4355,VALID,131,VALID,0.882813,
2014-08-17, 07:29:04,VALID,918.634,VALID,0,VALID,97.7017,VALID,180.823,VALID,18.5135,VALID,136,VALID,0.737891,
2014-08-17, 07:30:04,VALID,918.62,VALID,0,VALID,97.7093,VALID,185.229,VALID,18.5525,VALID,126,VALID,0.95625,
2014-08-17, 07:31:04,VALID,918.641,VALID,0,VALID,97.7169,VALID,189.419,VALID,18.6109,VALID,115,VALID,0.707031,
2014-08-17, 07:32:04,VALID,918.694,VALID,0,VALID,97.7017,VALID,192.964,VALID,18.6304,VALID,127,VALID,1.29414,
2014-08-17, 07:33:04,VALID,918.688,VALID,0,VALID,97.7093,VALID,195.758,VALID,18.6694,VALID,124,VALID,1.04844,
2014-08-17, 07:34:04,VALID,918.723,VALID,0,VALID,97.6941,VALID,199.626,VALID,18.7084,VALID,138,VALID,1.23633,
2014-08-17, 07:35:04,VALID,918.725,VALID,0,VALID,97.6636,VALID,203.923,VALID,18.824,VALID,132,VALID,0.832422,
2014-08-17, 07:36:04,VALID,918.735,VALID,0,VALID,97.656,VALID,201.022,VALID,18.9229,VALID,136,VALID,1.06133,
2014-08-17, 07:37:04,VALID,918.755,VALID,0,VALID,97.6636,VALID,109.697,VALID,18.9994,VALID,129,VALID,0.605078,
2014-08-17, 07:38:04,VALID,918.758,VALID,0,VALID,97.6255,VALID,60.7043,VALID,19.0579,VALID,134,VALID,0.633984,
2014-08-17, 07:39:04,VALID,918.748,VALID,0,VALID,97.656,VALID,67.473,VALID,19.0398,VALID,120,VALID,0.799219,
2014-08-17, 07:40:04,VALID,918.758,VALID,0,VALID,97.6483,VALID,67.2582,VALID,18.9619,VALID,133,VALID,0.707031,
2014-08-17, 07:41:04,VALID,918.771,VALID,0,VALID,97.6712,VALID,107.334,VALID,18.9409,VALID,128,VALID,0.740625,
2014-08-17, 07:42:04,VALID,918.777,VALID,0,VALID,97.6788,VALID,101.639,VALID,18.9424,VALID,126,VALID,1.16133,
2014-08-17, 07:43:04,VALID,918.767,VALID,0,VALID,97.6941,VALID,72.093,VALID,18.8644,VALID,132,VALID,1.24766,
2014-08-17, 07:44:04,VALID,918.795,VALID,0,VALID,97.6865,VALID,70.2665,VALID,18.8254,VALID,125,VALID,1.26953,
2014-08-17, 07:45:04,VALID,918.831,VALID,0,VALID,97.7017,VALID,75.746,VALID,18.7669,VALID,117,VALID,1.66055,
2014-08-17, 07:46:04,VALID,918.8,VALID,0,VALID,97.7093,VALID,66.3986,VALID,18.746,VALID,128,VALID,0.925391,
2014-08-17, 07:47:04,VALID,918.792,VALID,0,VALID,97.6941,VALID,63.9275,VALID,18.7655,VALID,110,VALID,0.754687,
2014-08-17, 07:48:04,VALID,918.791,VALID,0,VALID,97.6941,VALID,64.3572,VALID,18.7864,VALID,106,VALID,1.2918,
2014-08-17, 07:49:04,VALID,918.808,VALID,0,VALID,97.6941,VALID,68.1177,VALID,18.7864,VALID,99,VALID,0.716406,
2014-08-17, 07:50:04,VALID,918.801,VALID,0,VALID,97.6941,VALID,75.1014,VALID,18.7864,VALID,99,VALID,0.504687,
2014-08-17, 07:51:04,VALID,918.784,VALID,0,VALID,97.7093,VALID,95.8375,VALID,18.7265,VALID,98,VALID,0.994531,
2014-08-17, 07:52:04,VALID,918.787,VALID,0,VALID,97.6788,VALID,84.6636,VALID,18.7669,VALID,100,VALID,0.432422,
2014-08-17, 07:53:04,VALID,918.823,VALID,0,VALID,97.6865,VALID,80.4734,VALID,18.8059,VALID,100,VALID,0.460547,
2014-08-17, 07:54:04,VALID,918.844,VALID,0,VALID,97.6865,VALID,73.8121,VALID,18.8045,VALID,111,VALID,0.422656,
2014-08-17, 07:55:04,VALID,918.864,VALID,0,VALID,97.6865,VALID,104.325,VALID,18.8254,VALID,111,VALID,0.526172,
2014-08-17, 07:56:04,VALID,918.86,VALID,0,VALID,97.6636,VALID,157.938,VALID,18.8045,VALID,111,VALID,0.352734,
2014-08-17, 07:57:04,VALID,918.885,VALID,0,VALID,97.6712,VALID,160.947,VALID,18.8449,VALID,99,VALID,0.88125,
2014-08-17, 07:58:04,VALID,918.867,VALID,0,VALID,97.6788,VALID,211.981,VALID,18.8839,VALID,95,VALID,0.993359,
2014-08-17, 07:59:04,VALID,918.896,VALID,0,VALID,97.6636,VALID,87.672,VALID,18.8839,VALID,95,VALID,0.932422,
2014-08-17, 08:00:04,VALID,918.9,VALID,0,VALID,97.6712,VALID,201.989,VALID,18.824,VALID,95,VALID,1.23398,
2014-08-17, 08:01:04,VALID,918.927,VALID,0,VALID,97.6788,VALID,170.831,VALID,18.824,VALID,95,VALID,1.16602,
2014-08-17, 08:02:04,VALID,918.915,VALID,0,VALID,97.6712,VALID,282.57,VALID,18.8629,VALID,113,VALID,0.872266,
2014-08-17, 08:03:04,VALID,918.96,VALID,0,VALID,97.6483,VALID,284.827,VALID,18.9409,VALID,94,VALID,0.899609,
2014-08-17, 08:04:04,VALID,918.938,VALID,0,VALID,97.595,VALID,280.529,VALID,19.1359,VALID,103,VALID,0.612891,
2014-08-17, 08:05:04,VALID,918.962,VALID,0,VALID,97.5569,VALID,285.149,VALID,19.3308,VALID,125,VALID,0.75,
2014-08-17, 08:06:04,VALID,918.968,VALID,0,VALID,97.5721,VALID,296.86,VALID,19.3503,VALID,122,VALID,1.30195,
2014-08-17, 08:07:04,VALID,918.951,VALID,0,VALID,97.5569,VALID,303.521,VALID,19.4088,VALID,137,VALID,0.739844,
2014-08-17, 08:08:04,VALID,918.955,VALID,0,VALID,97.5721,VALID,306.422,VALID,19.4688,VALID,123,VALID,0.985156,
2014-08-17, 08:09:04,VALID,918.961,VALID,0,VALID,97.5797,VALID,296.967,VALID,19.4298,VALID,114,VALID,1.48984,
2014-08-17, 08:10:04,VALID,918.966,VALID,0,VALID,97.5569,VALID,317.811,VALID,19.4493,VALID,112,VALID,1.4625,
2014-08-17, 08:11:04,VALID,918.95,VALID,0,VALID,97.5035,VALID,321.464,VALID,19.5663,VALID,116,VALID,1.18711,
2014-08-17, 08:12:04,VALID,918.992,VALID,0,VALID,97.4806,VALID,325.439,VALID,19.7613,VALID,138,VALID,0.917578,
2014-08-17, 08:13:04,VALID,918.974,VALID,0,VALID,97.4577,VALID,329.092,VALID,19.7988,VALID,110,VALID,1.26484,
2014-08-17, 08:14:04,VALID,918.959,VALID,0,VALID,97.4349,VALID,332.638,VALID,19.7988,VALID,119,VALID,1.37461,
2014-08-17, 08:15:04,VALID,918.967,VALID,0,VALID,97.3663,VALID,335.646,VALID,19.9548,VALID,99,VALID,1.00625,
2014-08-17, 08:16:04,VALID,918.981,VALID,0,VALID,97.3129,VALID,338.977,VALID,20.2293,VALID,99,VALID,0.405078,
2014-08-17, 08:17:04,VALID,918.956,VALID,0,VALID,97.2748,VALID,342.308,VALID,20.3464,VALID,91,VALID,1.27305,
2014-08-17, 08:18:04,VALID,918.964,VALID,0,VALID,97.1833,VALID,345.423,VALID,20.4033,VALID,82,VALID,1.40313,
2014-08-17, 08:19:04,VALID,918.953,VALID,0,VALID,97.0537,VALID,348.861,VALID,20.4228,VALID,85,VALID,1.11328,
2014-08-17, 08:20:04,VALID,918.977,VALID,0,VALID,96.9317,VALID,352.514,VALID,20.5204,VALID,107,VALID,1.11758,
2014-08-17, 08:21:04,VALID,918.953,VALID,0,VALID,96.7411,VALID,356.06,VALID,20.5399,VALID,117,VALID,1.38711,
2014-08-17, 08:22:04,VALID,918.978,VALID,0,VALID,96.4438,VALID,360.035,VALID,20.5399,VALID,108,VALID,0.994141,
2014-08-17, 08:23:04,VALID,918.983,VALID,0,VALID,96.2075,VALID,363.151,VALID,20.5789,VALID,117,VALID,0.898047,
2014-08-17, 08:24:04,VALID,918.982,VALID,0,VALID,96.0474,VALID,366.159,VALID,20.7544,VALID,122,VALID,0.718359,
2014-08-17, 08:25:04,VALID,918.987,VALID,0,VALID,95.59,VALID,369.06,VALID,20.7138,VALID,122,VALID,1.00781,
2014-08-17, 08:26:04,VALID,918.989,VALID,0,VALID,95.3842,VALID,373.68,VALID,20.7723,VALID,130,VALID,0.878906,
2014-08-17, 08:27:04,VALID,919.014,VALID,0,VALID,95.064,VALID,377.441,VALID,20.8519,VALID,141,VALID,0.914063,
2014-08-17, 08:28:04,VALID,919.009,VALID,0,VALID,95.2393,VALID,380.879,VALID,20.9674,VALID,135,VALID,0.769141,
2014-08-17, 08:29:04,VALID,919.009,VALID,0,VALID,95.0792,VALID,384.962,VALID,21.0454,VALID,132,VALID,1.23945,
2014-08-17, 08:30:04,VALID,919.04,VALID,0,VALID,94.6981,VALID,388.4,VALID,21.1445,VALID,145,VALID,0.786328,
2014-08-17, 08:31:04,VALID,919.012,VALID,0,VALID,93.2268,VALID,391.623,VALID,21.1624,VALID,148,VALID,0.996484,
2014-08-17, 08:32:04,VALID,919.042,VALID,0,VALID,91.6945,VALID,395.276,VALID,21.1624,VALID,167,VALID,1.16484,
2014-08-17, 08:33:04,VALID,919.045,VALID,0,VALID,90.7873,VALID,397.855,VALID,21.2015,VALID,156,VALID,0.990234,
2014-08-17, 08:34:04,VALID,919.011,VALID,0,VALID,89.9106,VALID,402.367,VALID,21.2779,VALID,153,VALID,0.678906,
2014-08-17, 08:35:04,VALID,919.028,VALID,0,VALID,88.9729,VALID,405.805,VALID,21.455,VALID,158,VALID,0.600781,
2014-08-17, 08:36:04,VALID,919.014,VALID,0,VALID,86.7468,VALID,411.177,VALID,21.5526,VALID,160,VALID,0.948438,
2014-08-17, 08:37:04,VALID,919.035,VALID,0,VALID,87.6159,VALID,415.475,VALID,21.6696,VALID,161,VALID,0.370313,
2014-08-17, 08:38:04,VALID,919.034,VALID,0,VALID,86.3581,VALID,420.095,VALID,21.8257,VALID,163,VALID,0.787109,
2014-08-17, 08:39:04,VALID,919.07,VALID,0,VALID,83.5908,VALID,415.582,VALID,21.8257,VALID,169,VALID,1.07656,
2014-08-17, 08:40:04,VALID,919.07,VALID,0,VALID,83.2782,VALID,401.83,VALID,21.8257,VALID,174,VALID,1.15586,
2014-08-17, 08:41:04,VALID,919.079,VALID,0,VALID,83.6212,VALID,379.16,VALID,21.9233,VALID,153,VALID,0.754687,
2014-08-17, 08:42:04,VALID,919.11,VALID,0,VALID,83.545,VALID,334.035,VALID,21.9835,VALID,161,VALID,0.59375,
2014-08-17, 08:43:04,VALID,919.109,VALID,0,VALID,82.1042,VALID,307.926,VALID,22.0208,VALID,172,VALID,0.631641,
2014-08-17, 08:44:04,VALID,919.106,VALID,0,VALID,81.38,VALID,336.935,VALID,22.0208,VALID,167,VALID,0.764063,
2014-08-17, 08:45:04,VALID,919.134,VALID,0,VALID,81.7688,VALID,373.358,VALID,22.1184,VALID,151,VALID,0.721484,
2014-08-17, 08:46:04,VALID,919.154,VALID,0,VALID,79.7638,VALID,429.442,VALID,22.1379,VALID,156,VALID,0.755469,
2014-08-17, 08:47:04,VALID,919.156,VALID,0,VALID,80.3813,VALID,436.963,VALID,22.294,VALID,178,VALID,0.451562,
2014-08-17, 08:48:04,VALID,919.157,VALID,0,VALID,79.9315,VALID,425.574,VALID,22.4501,VALID,170,VALID,0.803906,
2014-08-17, 08:49:04,VALID,919.2,VALID,0,VALID,79.5885,VALID,403.549,VALID,22.5477,VALID,168,VALID,0.264062,
2014-08-17, 08:50:04,VALID,919.185,VALID,0,VALID,78.1858,VALID,421.277,VALID,22.7428,VALID,168,VALID,0.49375,
2014-08-17, 08:51:04,VALID,919.182,VALID,0,VALID,76.6687,VALID,398.284,VALID,22.9362,VALID,168,VALID,0.232812,
2014-08-17, 08:52:04,VALID,919.167,VALID,0,VALID,77.5225,VALID,328.877,VALID,23.0356,VALID,168,VALID,0.26875,
2014-08-17, 08:53:04,VALID,919.173,VALID,0,VALID,76.257,VALID,367.879,VALID,23.0746,VALID,168,VALID,0.409375,
2014-08-17, 08:54:04,VALID,919.189,VALID,0,VALID,75.6624,VALID,390.656,VALID,23.1119,VALID,168,VALID,0.0238281,
2014-08-17, 08:55:04,VALID,919.192,VALID,0,VALID,75.9445,VALID,441.046,VALID,23.2094,VALID,166,VALID,0.431641,
2014-08-17, 08:56:04,VALID,919.159,VALID,0,VALID,75.6395,VALID,411.822,VALID,23.3851,VALID,136,VALID,0.539453,
2014-08-17, 08:57:04,VALID,919.161,VALID,0,VALID,72.4987,VALID,411.929,VALID,23.5803,VALID,95,VALID,0.938672,
2014-08-17, 08:58:04,VALID,919.159,VALID,0,VALID,71.8126,VALID,425.682,VALID,23.5803,VALID,96,VALID,0.723828,
2014-08-17, 08:59:04,VALID,919.165,VALID,0,VALID,71.5076,VALID,435.781,VALID,23.5998,VALID,69,VALID,1.46797,
2014-08-17, 09:00:04,VALID,919.156,VALID,0,VALID,72.1328,VALID,422.029,VALID,23.5608,VALID,22,VALID,0.911328,
2014-08-17, 09:01:04,VALID,919.147,VALID,0,VALID,74.2521,VALID,452.65,VALID,23.5608,VALID,6,VALID,0.798828,
2014-08-17, 09:02:04,VALID,919.106,VALID,0,VALID,74.1682,VALID,415.582,VALID,23.6193,VALID,45,VALID,0.798437,
2014-08-17, 09:03:04,VALID,919.128,VALID,0,VALID,71.7897,VALID,424.5,VALID,23.6779,VALID,359,VALID,0.675781,
2014-08-17, 09:04:04,VALID,919.091,VALID,0,VALID,71.0579,VALID,464.683,VALID,23.6175,VALID,341,VALID,0.723828,
2014-08-17, 09:05:04,VALID,919.096,VALID,0,VALID,74.3664,VALID,468.551,VALID,23.6193,VALID,356,VALID,1.0457,
2014-08-17, 09:06:04,VALID,919.113,VALID,0,VALID,73.909,VALID,478.113,VALID,23.7169,VALID,7,VALID,0.523047,
2014-08-17, 09:07:04,VALID,919.085,VALID,0,VALID,70.5014,VALID,471.237,VALID,23.834,VALID,4,VALID,0.586719,
2014-08-17, 09:08:04,VALID,919.086,VALID,0,VALID,66.4609,VALID,436.104,VALID,23.8926,VALID,10,VALID,0.642187,
2014-08-17, 09:09:04,VALID,919.092,VALID,0,VALID,66.3923,VALID,462.427,VALID,23.9725,VALID,11,VALID,0.403906,
2014-08-17, 09:10:04,VALID,919.093,VALID,0,VALID,66.5219,VALID,482.733,VALID,24.0311,VALID,13,VALID,1.04883,
2014-08-17, 09:11:04,VALID,919.05,VALID,0,VALID,66.2551,VALID,464.898,VALID,24.0292,VALID,17,VALID,0.414063,
2014-08-17, 09:12:04,VALID,919.07,VALID,0,VALID,66.9412,VALID,460.385,VALID,24.0878,VALID,13,VALID,0.00117188,
2014-08-17, 09:13:04,VALID,919.012,VALID,0,VALID,66.7964,VALID,427.831,VALID,24.283,VALID,7,VALID,0.349609,
2014-08-17, 09:14:04,VALID,919.005,VALID,0,VALID,63.2134,VALID,457.27,VALID,24.3416,VALID,313,VALID,0.903906,
2014-08-17, 09:15:04,VALID,919.022,VALID,0,VALID,63.343,VALID,534.412,VALID,24.0683,VALID,266,VALID,0.971484,
2014-08-17, 09:16:04,VALID,918.988,VALID,0,VALID,65.4165,VALID,558.694,VALID,23.8358,VALID,266,VALID,0.315234,
2014-08-17, 09:17:04,VALID,918.963,VALID,0,VALID,65.5233,VALID,547.842,VALID,23.8145,VALID,273,VALID,0.842188,
2014-08-17, 09:18:04,VALID,918.97,VALID,0,VALID,64.8676,VALID,411.285,VALID,23.8127,VALID,273,VALID,0.435937,
2014-08-17, 09:19:04,VALID,918.951,VALID,0,VALID,63.9376,VALID,376.689,VALID,23.8536,VALID,290,VALID,1.06328,
2014-08-17, 09:20:04,VALID,918.957,VALID,0,VALID,65.8206,VALID,488.535,VALID,23.6584,VALID,297,VALID,0.702734,
2014-08-17, 09:21:04,VALID,918.976,VALID,0,VALID,65.1116,VALID,559.554,VALID,23.5803,VALID,297,VALID,0.911328,
2014-08-17, 09:22:04,VALID,918.958,VALID,0,VALID,65.9807,VALID,579.43,VALID,23.5022,VALID,297,VALID,0.355469,
2014-08-17, 09:23:04,VALID,918.955,VALID,0,VALID,67.7188,VALID,579.86,VALID,23.6193,VALID,297,VALID,0.197656,
2014-08-17, 09:24:04,VALID,918.974,VALID,0,VALID,65.7901,VALID,583.835,VALID,23.8536,VALID,297,VALID,0.303125,
2014-08-17, 09:25:04,VALID,918.925,VALID,0,VALID,65.63,VALID,574.81,VALID,23.9689,VALID,277,VALID,0.0480469,
2014-08-17, 09:26:04,VALID,918.929,VALID,0,VALID,64.4179,VALID,494.659,VALID,24.0878,VALID,287,VALID,0.655469,
2014-08-17, 09:27:04,VALID,918.926,VALID,0,VALID,64.4407,VALID,509.379,VALID,24.0097,VALID,268,VALID,0.891406,
2014-08-17, 09:28:04,VALID,918.894,VALID,0,VALID,64.0977,VALID,587.918,VALID,23.9335,VALID,274,VALID,0.786719,
2014-08-17, 09:29:04,VALID,918.881,VALID,0,VALID,64.8524,VALID,593.72,VALID,23.9316,VALID,283,VALID,0.491797,
2014-08-17, 09:30:04,VALID,918.857,VALID,0,VALID,67.6197,VALID,597.373,VALID,23.9902,VALID,323,VALID,0.727344,
2014-08-17, 09:31:04,VALID,918.842,VALID,0,VALID,65.4623,VALID,597.695,VALID,24.1073,VALID,323,VALID,1.21563,
2014-08-17, 09:32:04,VALID,918.842,VALID,0,VALID,66.0264,VALID,590.174,VALID,24.1269,VALID,323,VALID,0.978906,
2014-08-17, 09:33:04,VALID,918.812,VALID,0,VALID,66.5524,VALID,557.834,VALID,24.1659,VALID,343,VALID,0.850391,
2014-08-17, 09:34:04,VALID,918.824,VALID,0,VALID,65.0506,VALID,598.017,VALID,24.3026,VALID,27,VALID,0.907812,
2014-08-17, 09:35:04,VALID,918.854,VALID,0,VALID,63.3811,VALID,604.357,VALID,24.4587,VALID,5,VALID,1.09375,
2014-08-17, 09:36:04,VALID,918.827,VALID,0,VALID,62.1308,VALID,605.323,VALID,24.5564,VALID,355,VALID,0.198437,
2014-08-17, 09:37:04,VALID,918.858,VALID,0,VALID,61.8411,VALID,607.042,VALID,24.7126,VALID,355,VALID,0.25,
2014-08-17, 09:38:04,VALID,918.856,VALID,0,VALID,61.2618,VALID,609.621,VALID,24.9274,VALID,355,VALID,0.0117188,
2014-08-17, 09:39:04,VALID,918.844,VALID,0,VALID,60.1259,VALID,612.415,VALID,25.1812,VALID,355,VALID,0.26875,
2014-08-17, 09:40:04,VALID,918.853,VALID,0,VALID,59.9048,VALID,613.811,VALID,25.357,VALID,355,VALID,0.219141,
2014-08-17, 09:41:04,VALID,918.853,VALID,0,VALID,60.4384,VALID,613.167,VALID,25.357,VALID,355,VALID,0.606641,
2014-08-17, 09:42:04,VALID,918.884,VALID,0,VALID,60.0954,VALID,615.96,VALID,25.2203,VALID,355,VALID,0.577344,
2014-08-17, 09:43:04,VALID,918.88,VALID,0,VALID,59.1501,VALID,619.613,VALID,25.1031,VALID,355,VALID,0.937109,
2014-08-17, 09:44:04,VALID,918.869,VALID,0,VALID,59.2263,VALID,622.407,VALID,24.9255,VALID,321,VALID,0.721484,
2014-08-17, 09:45:04,VALID,918.862,VALID,0,VALID,60.2174,VALID,623.911,VALID,24.7907,VALID,309,VALID,0.644531,
2014-08-17, 09:46:04,VALID,918.874,VALID,0,VALID,60.4766,VALID,627.779,VALID,24.7497,VALID,309,VALID,0.489453,
2014-08-17, 09:47:04,VALID,918.869,VALID,0,VALID,60.9568,VALID,631.324,VALID,24.7888,VALID,309,VALID,0.572266,
2014-08-17, 09:48:04,VALID,918.87,VALID,0,VALID,60.6748,VALID,633.903,VALID,24.7907,VALID,289,VALID,0.541406,
2014-08-17, 09:49:04,VALID,918.876,VALID,0,VALID,60.2021,VALID,635.514,VALID,24.8669,VALID,289,VALID,0.49375,
2014-08-17, 09:50:04,VALID,918.859,VALID,0,VALID,62.8017,VALID,637.986,VALID,24.9664,VALID,318,VALID,0.776563,
2014-08-17, 09:51:04,VALID,918.858,VALID,0,VALID,60.4232,VALID,641.746,VALID,24.8669,VALID,319,VALID,0.148828,
2014-08-17, 09:52:04,VALID,918.821,VALID,0,VALID,60.9568,VALID,643.895,VALID,24.8864,VALID,319,VALID,0.430469,
2014-08-17, 09:53:04,VALID,918.826,VALID,0,VALID,61.7268,VALID,646.688,VALID,24.8669,VALID,298,VALID,0.604297,
2014-08-17, 09:54:04,VALID,918.822,VALID,0,VALID,60.6671,VALID,650.126,VALID,24.7693,VALID,298,VALID,0.800781,
2014-08-17, 09:55:04,VALID,918.816,VALID,0,VALID,59.9505,VALID,652.812,VALID,24.6716,VALID,291,VALID,1.42266,
2014-08-17, 09:56:04,VALID,918.807,VALID,0,VALID,61.4142,VALID,655.284,VALID,24.4764,VALID,319,VALID,0.824219,
2014-08-17, 09:57:04,VALID,918.782,VALID,0,VALID,61.3761,VALID,657.325,VALID,24.6149,VALID,319,VALID,0.0347656,
2014-08-17, 09:58:04,VALID,918.789,VALID,0,VALID,61.9403,VALID,586.736,VALID,24.6912,VALID,289,VALID,1.20508,
2014-08-17, 09:59:04,VALID,918.763,VALID,0,VALID,62.8703,VALID,662.16,VALID,24.7497,VALID,324,VALID,0.372656,
2014-08-17, 10:00:04,VALID,918.762,VALID,0,VALID,61.7725,VALID,658.614,VALID,24.8278,VALID,314,VALID,1.05547,
2014-08-17, 10:01:04,VALID,918.772,VALID,0,VALID,59.8438,VALID,668.284,VALID,24.6521,VALID,299,VALID,1.11953,
2014-08-17, 10:02:04,VALID,918.743,VALID,0,VALID,62.4968,VALID,669.896,VALID,24.5155,VALID,284,VALID,0.851172,
2014-08-17, 10:03:04,VALID,918.753,VALID,0,VALID,59.7752,VALID,672.904,VALID,24.4374,VALID,285,VALID,0.258984,
2014-08-17, 10:04:04,VALID,918.739,VALID,0,VALID,60.5528,VALID,673.226,VALID,24.5545,VALID,267,VALID,0.601953,
2014-08-17, 10:05:04,VALID,918.712,VALID,0,VALID,61.0102,VALID,677.846,VALID,24.5331,VALID,261,VALID,1.16211,
2014-08-17, 10:06:04,VALID,918.688,VALID,0,VALID,62.3443,VALID,680.425,VALID,24.5545,VALID,228,VALID,0.9125,
2014-08-17, 10:07:04,VALID,918.717,VALID,0,VALID,61.3151,VALID,682.574,VALID,24.574,VALID,281,VALID,0.946484,
2014-08-17, 10:08:04,VALID,918.678,VALID,0,VALID,60.2097,VALID,683.755,VALID,24.5935,VALID,306,VALID,0.874609,
2014-08-17, 10:09:04,VALID,918.648,VALID,0,VALID,62.5349,VALID,682.896,VALID,24.6307,VALID,306,VALID,0.781641,
2014-08-17, 10:10:04,VALID,918.647,VALID,0,VALID,62.3977,VALID,679.243,VALID,24.7088,VALID,296,VALID,0.866797,
2014-08-17, 10:11:04,VALID,918.677,VALID,0,VALID,63.0533,VALID,586.736,VALID,24.7497,VALID,274,VALID,0.669922,
2014-08-17, 10:12:04,VALID,918.659,VALID,0,VALID,62.1995,VALID,650.664,VALID,24.8845,VALID,330,VALID,0.838672,
2014-08-17, 10:13:04,VALID,918.702,VALID,0,VALID,64.4789,VALID,571.587,VALID,25.0621,VALID,330,VALID,0.655469,
2014-08-17, 10:14:04,VALID,918.699,VALID,0,VALID,60.4689,VALID,620.15,VALID,25.1969,VALID,290,VALID,0.827344,
2014-08-17, 10:15:04,VALID,918.699,VALID,0,VALID,59.3635,VALID,646.688,VALID,25.1988,VALID,285,VALID,0.224219,
2014-08-17, 10:16:04,VALID,918.695,VALID,0,VALID,61.8869,VALID,631.969,VALID,25.1793,VALID,277,VALID,0.933594,
2014-08-17, 10:17:04,VALID,918.674,VALID,0,VALID,61.0102,VALID,627.456,VALID,25.0798,VALID,290,VALID,0.469141,
2014-08-17, 10:18:04,VALID,918.666,VALID,0,VALID,61.3228,VALID,622.192,VALID,25.2164,VALID,307,VALID,0.667188,
2014-08-17, 10:19:04,VALID,918.698,VALID,0,VALID,61.1855,VALID,596.836,VALID,25.2555,VALID,273,VALID,0.880078,
2014-08-17, 10:20:04,VALID,918.686,VALID,0,VALID,61.2389,VALID,598.232,VALID,25.3336,VALID,273,VALID,0.258203,
2014-08-17, 10:21:04,VALID,918.659,VALID,0,VALID,62.5501,VALID,612.522,VALID,25.3922,VALID,250,VALID,1.14648,
2014-08-17, 10:22:04,VALID,918.67,VALID,0,VALID,62.0241,VALID,536.991,VALID,25.3726,VALID,273,VALID,0.602344,
2014-08-17, 10:23:04,VALID,918.615,VALID,0,VALID,59.9048,VALID,632.399,VALID,25.4331,VALID,273,VALID,0.90625,
2014-08-17, 10:24:04,VALID,918.616,VALID,0,VALID,61.9403,VALID,680.747,VALID,25.236,VALID,254,VALID,0.580469,
2014-08-17, 10:25:04,VALID,918.601,VALID,0,VALID,61.216,VALID,694.714,VALID,25.2164,VALID,306,VALID,0.638281,
2014-08-17, 10:26:04,VALID,918.586,VALID,0,VALID,61.9098,VALID,704.921,VALID,25.2945,VALID,307,VALID,0.717969,
2014-08-17, 10:27:04,VALID,918.566,VALID,0,VALID,61.2389,VALID,704.814,VALID,25.3726,VALID,352,VALID,0.919141,
2014-08-17, 10:28:04,VALID,918.56,VALID,0,VALID,62.9389,VALID,699.334,VALID,25.4703,VALID,354,VALID,0.573828,
2014-08-17, 10:29:04,VALID,918.551,VALID,0,VALID,59.8286,VALID,703.202,VALID,25.5874,VALID,354,VALID,0.890234,
2014-08-17, 10:30:04,VALID,918.549,VALID,0,VALID,60.8882,VALID,709.112,VALID,25.6265,VALID,313,VALID,0.882422,
2014-08-17, 10:31:04,VALID,918.586,VALID,0,VALID,61.4371,VALID,712.442,VALID,25.5093,VALID,275,VALID,0.741406,
2014-08-17, 10:32:04,VALID,918.586,VALID,0,VALID,59.333,VALID,712.765,VALID,25.4117,VALID,284,VALID,0.443359,
2014-08-17, 10:33:04,VALID,918.572,VALID,0,VALID,62.2757,VALID,713.946,VALID,25.4312,VALID,284,VALID,0.651563,
2014-08-17, 10:34:04,VALID,918.541,VALID,0,VALID,60.9797,VALID,718.137,VALID,25.5874,VALID,280,VALID,0.874219,
2014-08-17, 10:35:04,VALID,918.485,VALID,0,VALID,62.6492,VALID,719.211,VALID,25.6675,VALID,323,VALID,0.671094,
2014-08-17, 10:36:04,VALID,918.477,VALID,0,VALID,60.873,VALID,728.666,VALID,25.6851,VALID,275,VALID,0.834766,
2014-08-17, 10:37:04,VALID,918.466,VALID,0,VALID,59.9887,VALID,734.038,VALID,25.7827,VALID,357,VALID,0.964453,
2014-08-17, 10:38:04,VALID,918.433,VALID,0,VALID,61.338,VALID,737.583,VALID,25.7241,VALID,314,VALID,0.563672,
2014-08-17, 10:39:04,VALID,918.408,VALID,0,VALID,60.1106,VALID,741.989,VALID,25.7847,VALID,350,VALID,0.811719,
2014-08-17, 10:40:04,VALID,918.433,VALID,0,VALID,60.7662,VALID,744.352,VALID,25.8823,VALID,255,VALID,0.961719,